Location: NJAA Observatory
(40.6819°N, 74.8979°W)
Time: 02:22:20
(UTC-04:00)

S-56A Canister/Altair - Visible Passes

Search period start: 22 October 2014 00:00
Search period end: 01 November 2014 00:00
Orbit: 633 x 2503 km, 38.9° (Epoch: 20 October)

Date Brightness Start Highest point End Pass type
(mag) Time Alt. Az. Time Alt. Az. Time Alt. Az.
22 Oct 11.4 00:04:05 10° W 00:05:31 14° W 00:05:31 14° W visible
22 Oct 10.3 19:18:46 10° SSW 19:32:19 42° SE 19:40:14 23° E visible
22 Oct 9.5 21:23:27 10° WSW 21:37:42 71° S 21:37:42 71° S visible
22 Oct 11.0 23:30:45 10° W 23:35:11 24° W 23:35:11 24° W visible
23 Oct 10.5 18:46:14 10° SSW 18:59:25 38° SE 19:09:51 15° E visible
23 Oct 9.5 20:50:20 10° WSW 21:05:15 69° SSE 21:07:19 62° ESE visible
23 Oct 10.5 22:57:24 10° W 23:04:47 36° W 23:04:47 36° W visible
24 Oct 10.6 18:13:50 10° SSW 18:26:32 35° SE 18:38:30 10° E visible
24 Oct 9.8 20:17:18 10° SW 20:32:15 66° SSE 20:36:52 46° E visible
24 Oct 10.1 22:24:04 10° W 22:34:19 52° WSW 22:34:19 52° WSW visible
25 Oct 11.6 00:31:47 10° W 00:31:47 10° W 00:31:47 10° W visible
25 Oct 10.0 19:44:22 10° SW 19:59:13 63° SSE 20:06:21 33° E visible
25 Oct 9.7 21:50:47 10° W 22:03:49 71° WSW 22:03:49 71° WSW visible
25 Oct 11.2 23:58:27 10° W 00:01:16 18° W 00:01:16 18° W visible
26 Oct 10.1 19:11:33 10° SW 19:26:10 60° SSE 19:35:48 23° E visible
26 Oct 9.5 21:17:32 10° WSW 21:32:43 82° S 21:33:16 80° SE visible
26 Oct 10.9 23:25:06 10° W 23:30:43 28° W 23:30:43 28° W visible
27 Oct 10.2 18:38:50 10° SW 18:53:08 56° SSE 19:05:13 15° E visible
27 Oct 9.6 20:44:22 10° WSW 20:59:39 81° S 21:02:40 62° E visible
27 Oct 10.4 22:51:46 10° W 23:00:07 41° W 23:00:07 41° W visible
28 Oct 10.4 18:06:15 10° SW 18:20:06 53° SSE 18:33:47 10° ENE visible
28 Oct 9.8 20:11:16 10° WSW 20:26:33 79° SSE 20:32:03 46° E visible
28 Oct 10.0 22:18:27 10° W 22:29:30 56° W 22:29:30 56° W visible
29 Oct 11.5 00:26:10 10° WNW 00:26:57 12° W 00:26:57 12° W visible
29 Oct 9.9 19:38:16 10° WSW 19:53:24 77° SSE 20:01:25 33° E visible
29 Oct 9.7 21:45:10 10° W 21:58:51 75° WSW 21:58:51 75° WSW visible
29 Oct 11.2 23:52:47 10° WNW 23:56:18 20° W 23:56:18 20° W visible
30 Oct 10.0 19:05:23 10° WSW 19:20:15 75° SSE 19:30:45 23° E visible
30 Oct 9.6 21:11:57 10° W 21:27:16 83° S 21:28:12 79° SE visible
30 Oct 10.9 23:19:26 10° WNW 23:25:39 30° W 23:25:39 30° W visible
31 Oct 10.1 18:32:35 10° WSW 18:47:05 72° SSE 19:00:06 14° E visible
31 Oct 9.6 20:38:48 10° W 20:54:09 84° S 20:57:33 61° ESE visible
31 Oct 10.5 22:46:06 10° W 22:54:59 41° W 22:54:59 41° W visible
